Weather History for New Bedford, MA

Change the Weather History Date:

Saturday, June 30, 2012

  Actual Average Record
Temperature  
Mean Temperature 75 °F -  
Max Temperature 90 °F 79 °F 99 °F (1964)
Min Temperature 61 °F 62 °F 51 °F (1985)
Cooling Degree Days 10    
Growing Degree Days 25 (Base 50)    
Moisture  
Dew Point 61 °F    
Average Humidity 61    
Maximum Humidity 90    
Minimum Humidity 34    
Precipitation  
Precipitation 0.00 in - - ()
Sea Level Pressure  
Sea Level Pressure 29.70 in    
Wind  
Wind Speed 5 mph (WSW)    
Max Wind Speed 17 mph    
Max Gust Speed 21 mph    
Visibility 10 miles    
Events      
Averages and records for this station are not official NWS values.
T = Trace of Precipitation, MM = Missing Value Source: NWS Daily Summary

Daily Weather History Graph

Daily Weather History Graph

Search for Another Location

Airport:

Trip Planner

Search our weather history database for the weather conditions in past years. The results will help you decide how hot, cold, wet, or windy it might be!

Date:

Astronomy

Jun. 30, 2012 Rise Set
Actual Time 5:12 AM EDT 8:22 PM EDT
Civil Twilight 4:38 AM EDT 8:56 PM EDT
Nautical Twilight 3:55 AM EDT 9:39 PM EDT
Astronomical Twilight 3:02 AM EDT 10:31 PM EDT
Moon 5:14 PM EDT (6/30) 2:06 AM EDT (6/30)
Length of Visible Light 16h 17m
Length of Day
15h 09m
Waxing Gibbous, 87% of the Moon is Illuminated
Jun 30
Waxing Gibbous
Jul 3
Full
Jul 10
Last Quarter
Jul 19
New
Jul 26
First Quarter

Hourly Weather History & Observations

Time (EDT) Temp. Heat Index Dew Point Humidity Pressure Visibility Wind Dir Wind Speed Gust Speed Precip Events Conditions
12:53 AM 71.1 °F - 57.9 °F 63% 29.66 in 10.0 mi WNW 3.5 mph - N/A   Clear
1:53 AM 64.0 °F - 57.9 °F 80% 29.64 in 10.0 mi Calm Calm - N/A   Clear
2:53 AM 61.0 °F - 57.9 °F 90% 29.66 in 10.0 mi Calm Calm - N/A   Clear
3:53 AM 62.1 °F - 57.9 °F 86% 29.65 in 10.0 mi Calm Calm - N/A   Clear
4:53 AM 62.1 °F - 57.9 °F 86% 29.68 in 10.0 mi Calm Calm - N/A   Clear
5:53 AM 62.1 °F - 59.0 °F 90% 29.70 in 10.0 mi SW 4.6 mph - N/A   Clear
7:53 AM 73.9 °F - 61.0 °F 64% 29.73 in 10.0 mi WSW 6.9 mph - N/A   Clear
8:53 AM 80.1 °F 80.7 °F 59.0 °F 48% 29.70 in 10.0 mi West 9.2 mph - N/A   Clear
9:53 AM 82.0 °F 82.4 °F 60.1 °F 47% 29.70 in 10.0 mi WNW 9.2 mph - N/A   Clear
10:53 AM 86.0 °F 85.0 °F 57.9 °F 38% 29.70 in 10.0 mi Variable 5.8 mph 16.1 mph N/A   Clear
11:53 AM 88.0 °F 87.1 °F 59.0 °F 37% 29.69 in 10.0 mi WNW 10.4 mph 19.6 mph N/A   Clear
12:53 PM 89.1 °F 87.7 °F 57.0 °F 34% 29.69 in 10.0 mi WSW 13.8 mph 19.6 mph N/A   Clear
1:53 PM 89.1 °F 88.0 °F 57.9 °F 35% 29.70 in 10.0 mi WSW 5.8 mph - N/A   Clear
2:53 PM 88.0 °F 89.6 °F 64.9 °F 46% 29.70 in 10.0 mi SSW 11.5 mph 18.4 mph N/A   Clear
3:53 PM 87.1 °F 89.2 °F 66.0 °F 49% 29.70 in 10.0 mi SW 12.7 mph - N/A   Clear
4:53 PM 84.9 °F 86.1 °F 64.0 °F 49% 29.69 in 10.0 mi SW 17.3 mph 20.7 mph N/A   Clear
5:53 PM 82.0 °F 83.1 °F 63.0 °F 52% 29.70 in 10.0 mi SW 9.2 mph - N/A   Clear
6:53 PM 81.0 °F 82.2 °F 63.0 °F 54% 29.71 in 10.0 mi SW 9.2 mph - N/A   Clear
7:53 PM 78.1 °F - 64.0 °F 62% 29.73 in 9.0 mi SW 6.9 mph - N/A   Clear
8:53 PM 75.9 °F - 63.0 °F 64% 29.72 in 10.0 mi WSW 5.8 mph - N/A   Clear
9:53 PM 73.9 °F - 64.0 °F 71% 29.73 in 9.0 mi WSW 4.6 mph - N/A   Clear
10:53 PM 71.1 °F - 64.0 °F 78% 29.73 in 7.0 mi SW 5.8 mph - N/A   Clear
11:53 PM 72.0 °F - 64.9 °F 78% 29.73 in 7.0 mi WSW 5.8 mph - N/A   Clear